CW2674 Weather Reports


Display with metric or nautical units.
time (UTC)temp
F
wind
direction
speed
MPH
gust
MPH
rain 1hr
in
rain 24hr
in
rain mn
in
humidity
%
barometer
mb
20260904191406 101 104 3.0 8.0 0.00 0.00 0.00 36 1011.6
20260904190403 100 156 2.0 7.0 0.00 0.00 0.00 35 1011.7
20260904183404 99 244 6.0 9.0 0.00 0.00 0.00 36 1012.2
20260904181404 98 147 3.0 5.0 0.00 0.00 0.00 37 1012.7
20260904180406 98 163 5.0 8.0 0.00 0.00 0.00 37 1012.8
20260904174404 97 148 3.0 8.0 0.00 0.00 0.00 42 1012.9
20260904173405 96 206 7.0 8.0 0.00 0.00 0.00 43 1012.8
20260904170406 94 103 6.0 8.0 0.00 0.00 0.00 46 1012.8
20260904164405 94 132 5.0 8.0 0.00 0.00 0.00 47 1012.8
20260904163406 93 167 5.0 9.0 0.00 0.00 0.00 48 1012.7
20260904161405 92 144 5.0 10.0 0.00 0.00 0.00 51 1012.5
20260904154405 90 136 5.0 5.0 0.00 0.00 0.00 53 1012.3
20260904153403 89 128 2.0 8.0 0.00 0.00 0.00 54 1012.3
20260904151405 88 148 3.0 7.0 0.00 0.00 0.00 56 1012.3
20260904150405 87 119 3.0 8.0 0.00 0.00 0.00 57 1012.2
20260904144404 85 127 5.0 5.0 0.00 0.00 0.00 60 1012.2
20260904143405 83 120 2.0 3.0 0.00 0.00 0.00 63 1012.1
20260904141404 83 94 2.0 3.0 0.00 0.00 0.00 62 1011.9
20260904140404 82 90 1.0 2.0 0.00 0.00 0.00 61 1011.8
20260904133404 82 90 1.0 1.0 0.00 0.00 0.00 59 1011.4
20260904131405 83 90 0.0 1.0 0.00 0.00 0.00 59 1011.1
20260904130406 83 90 0.0 1.0 0.00 0.00 0.00 58 1010.8
20260904124404 83 90 0.0 0.0 0.00 0.00 0.00 58 1010.6
20260904123405 83 90 0.0 1.0 0.00 0.00 0.00 57 1010.5
20260904114405 84 90 1.0 2.0 0.00 0.00 0.00 55 1010.3
20260904113404 84 90 1.0 3.0 0.00 0.00 0.00 54 1010.2
20260904111404 84 91 1.0 3.0 0.00 0.00 0.00 50 1010.2
20260904110404 84 91 2.0 3.0 0.00 0.00 0.00 50 1010.3
20260904071406 89 246 1.0 3.0 0.00 0.00 0.00 45 1009.8
20260904070405 90 247 1.0 5.0 0.00 0.00 0.00 44 1009.8
20260904064404 90 246 3.0 8.0 0.00 0.00 0.00 44 1009.4
20260904063404 90 174 1.0 5.0 0.00 0.00 0.00 44 1009.4
20260904061405 90 170 1.0 3.0 0.00 0.00 0.00 44 1009.3
20260904060406 90 169 2.0 5.0 0.00 0.00 0.00 43 1009.1
20260904054404 90 167 2.0 5.0 0.00 0.00 0.00 43 1009.0
20260904053404 91 166 1.0 3.0 0.00 0.00 0.00 43 1009.0
20260904051405 91 165 0.0 5.0 0.00 0.00 0.00 43 1008.9
20260904050406 91 166 0.0 5.0 0.00 0.00 0.00 43 1008.9
20260904044404 91 163 1.0 5.0 0.00 0.00 0.00 43 1008.7
20260904043404 92 164 1.0 8.0 0.00 0.00 0.00 43 1008.8
20260904041404 92 165 4.0 5.0 0.00 0.00 0.00 42 1008.8
20260904040404 92 156 5.0 7.0 0.00 0.00 0.00 42 1008.7
20260904034404 93 162 2.0 9.0 0.00 0.00 0.00 40 1008.4
20260904033404 94 164 3.0 12.0 0.00 0.00 0.00 40 1008.4
20260904031404 95 141 3.0 8.0 0.00 0.00 0.00 38 1008.0
20260904030404 96 172 4.0 10.0 0.00 0.00 0.00 38 1007.9
20260904024404 97 175 2.0 6.0 0.00 0.00 0.00 36 1007.6
20260904023405 98 195 4.0 12.0 0.00 0.00 0.00 33 1007.6
20260904021405 99 239 6.0 10.0 0.00 0.00 0.00 30 1007.4
20260903223404 102 308 3.0 12.0 0.00 0.00 0.00 27 1007.9
20260903221404 103 193 6.0 9.0 0.00 0.00 0.00 27 1008.2
20260903220404 104 204 5.0 7.0 0.00 0.00 0.00 28 1008.5
20260903214404 103 19 1.0 5.0 0.00 0.00 0.00 27 1008.8
20260903213403 102 205 4.0 8.0 0.00 0.00 0.00 30 1009.0
20260903211404 103 214 2.0 10.0 0.00 0.00 0.00 29 1009.3
20260903210405 102 213 3.0 8.0 0.00 0.00 0.00 30 1009.5
20260903204404 101 53 4.0 6.0 0.00 0.00 0.00 31 1009.7
20260903203406 102 194 3.0 9.0 0.00 0.00 0.00 31 1010.0
20260903201404 101 91 4.0 7.0 0.00 0.00 0.00 31 1010.1
20260903200404 102 184 1.0 12.0 0.00 0.00 0.00 32 1010.4
20260903194406 101 147 4.0 6.0 0.00 0.00 0.00 32 1010.6